DECAYED

STARLINK-2561, 48403 (Decayed)

Orbit data source: Space-Track

STARLINK-2561, 48403 was a payload satellite owned by SpaceX/Seattle (US) in LEO that was launched on Tue, 04 May 2021 UTC via an FALCON 9 launch vehicle from the Air Force Eastern Test Range (AFETR). Payload-class satellites include a variety of spacecraft equipped with specific instruments for various scientific and technological missions. These include communications satellites like Starlink; space stations such as the ISS; scientific satellites like the Hubble; Earth observation satellites from companies like Planet Labs, Umbra, and HawkEye 360; GPS; miniature CubeSats for education and research; and military/defense satellites.

Not visible in the next 10 days
Identifier
48403, 2021-038BC
Orbit
Decayed
Country
Flag of USUS
Related business
Manufacturer
SpaceX/Seattle
Mission
Decayed Commercial Communications
Bus & Motor
STARLINK, Unknown motor
Mass
260 kg wet, ~248 kg dry
Launch date (UTC)
2021-05-04 (5 years ago)
Launch vehicle
FALCON 9
Launch site
Air Force Eastern Test Range (AFETR)
Object type
Payload
Rocket body
Debris
Shape & HBR
Box + 1 Pan, 10.1 m
Radar Cross Section
13.562 m², Large (>1 m²)

Expand to show TLE details & history
Last TLE update: 1 year ago

TLE from 1 year ago
0 STARLINK-2561
1 48403U 21038BC  25083.29751604  .09974799  12297-4  99967-3 0  9997
2 48403  53.0368  92.9314 0002283 284.4181 196.4343 16.37317342215383
Epoch: 2025-03-24T07:08Z
TLE epoch observation values (Epoch: 2025-03-24T07:08:25.385Z)
Latitude
43.45879°
Longitude
-61.34504°
Altitude
178.681 km
Speed
7.804 km/s
True Right ascension
15h 11m 06s
True Declination
43° 16' 19"
Sunlit
Object was in full shadow at epoch
Visualization orbit readout
Latitude
Unknown
Longitude
Unknown
Altitude
Unknown
Speed
Unknown
Apparent Right ascension
Unknown
Apparent Declination
Unknown
Sunlit
N/A
Visualization observer readout
Local Sidereal Time
21:24:25
Azimuth
Unknown
Elevation
Unknown
Doppler factor
Unknown
Orbital elements
Apogee altitude
174.733 km
Perigee altitude
171.742 km
Semi-major axis
6,551.374 km
Eccentricity
0.00023
Inclination
53.0368°
RAAN
92.9314°
Arg. of periapsis
284.4181°
True anomaly
196.4269°
Mean anomaly
196.4343°
Eccentric anomaly
196.4306°
Mean motion
4.09303 °/min
Orbital period
87.95 mins
BSTAR
0.00099967
Loading maneuver chart data...
Computing Atmospheric mass density...
Loading historical data...
Loading historical data...
Loading historical data...
Loading historical data...
Loading historical data...
Loading historical data...
Loading historical data...

Documentation

Showing up to 5 results
|